Time,TemperatureF,DewpointF,PressureIn,WindDirection,WindDirectionDegrees,WindSpeedMPH,WindSpeedGustMPH,Humidity,HourlyPrecipIn,Conditions,Clouds,dailyrainin,SoftwareType,DateUTC
2013-08-24 07:03:00,71.0,44.8,29.85,ENE,68,1.7,1.7,39,0.00,,,0.00,WUHU216HW,2013-08-24 14:03:00,
2013-08-24 07:08:00,71.2,44.2,29.85,East,90,2.0,2.0,39,0.00,,,0.00,WUHU216HW,2013-08-24 14:08:00,
2013-08-24 07:13:00,71.2,44.9,29.85,ENE,68,3.1,3.1,39,0.00,,,0.00,WUHU216HW,2013-08-24 14:13:00,
2013-08-24 07:18:00,71.4,45.1,29.85,East,90,2.0,3.1,39,0.00,,,0.00,WUHU216HW,2013-08-24 14:18:00,
2013-08-24 07:23:00,71.4,45.1,29.85,ENE,68,1.7,3.1,38,0.00,,,0.00,WUHU216HW,2013-08-24 14:23:00,
2013-08-24 07:28:00,71.2,44.2,29.85,ENE,68,0.0,2.2,38,0.00,,,0.00,WUHU216HW,2013-08-24 14:28:00,
2013-08-24 07:33:00,71.2,44.2,29.86,East,90,0.0,2.2,38,0.00,,,0.00,WUHU216HW,2013-08-24 14:33:00,
2013-08-24 07:38:00,71.2,44.2,29.86,ENE,68,0.8,2.2,39,0.00,,,0.00,WUHU216HW,2013-08-24 14:38:00,
2013-08-24 07:43:00,71.2,44.2,29.85,ENE,68,0.6,2.2,38,0.00,,,0.00,WUHU216HW,2013-08-24 14:43:00,
2013-08-24 07:48:00,71.4,45.1,29.85,ENE,68,2.0,2.0,38,0.00,,,0.00,WUHU216HW,2013-08-24 14:48:00,
2013-08-24 07:53:00,71.4,45.1,29.85,ENE,68,0.0,2.0,39,0.00,,,0.00,WUHU216HW,2013-08-24 14:53:00,
2013-08-24 07:58:00,71.7,45.4,29.86,East,90,2.9,2.9,38,0.00,,,0.00,WUHU216HW,2013-08-24 14:58:00,
2013-08-24 08:03:00,71.9,44.8,29.85,ENE,68,2.9,2.9,38,0.00,,,0.00,WUHU216HW,2013-08-24 15:03:00,
2013-08-24 08:08:00,72.3,45.1,29.86,ENE,68,1.7,2.9,38,0.00,,,0.00,WUHU216HW,2013-08-24 15:08:00,
2013-08-24 08:13:00,73.0,45.8,29.86,East,90,0.8,2.9,38,0.00,,,0.00,WUHU216HW,2013-08-24 15:13:00,
2013-08-24 08:18:00,73.2,45.9,29.86,ESE,113,1.7,2.9,38,0.00,,,0.00,WUHU216HW,2013-08-24 15:18:00,
2013-08-24 08:24:00,73.7,45.7,29.86,ESE,113,2.6,2.9,37,0.00,,,0.00,WUHU216HW,2013-08-24 15:24:00,
2013-08-24 08:29:00,74.6,45.7,29.87,ESE,113,0.8,3.1,36,0.00,,,0.00,WUHU216HW,2013-08-24 15:29:00,
2013-08-24 08:34:00,75.2,46.2,29.86,ESE,113,0.0,3.1,36,0.00,,,0.00,WUHU216HW,2013-08-24 15:34:00,
2013-08-24 08:39:00,75.7,46.7,29.86,East,90,3.5,3.5,36,0.00,,,0.00,WUHU216HW,2013-08-24 15:39:00,
2013-08-24 08:44:00,76.1,47.0,29.86,ESE,113,0.0,3.5,36,0.00,,,0.00,WUHU216HW,2013-08-24 15:44:00,
2013-08-24 08:49:00,76.2,47.2,29.86,East,90,0.4,2.6,36,0.00,,,0.00,WUHU216HW,2013-08-24 15:49:00,
2013-08-24 08:54:00,76.8,48.4,29.86,SE,135,1.3,2.6,37,0.00,,,0.00,WUHU216HW,2013-08-24 15:54:00,
2013-08-24 08:59:00,77.3,48.9,29.87,ENE,68,3.5,3.5,37,0.00,,,0.00,WUHU216HW,2013-08-24 15:59:00,
2013-08-24 09:04:00,77.7,49.2,29.87,ENE,68,1.5,3.5,37,0.00,,,0.00,WUHU216HW,2013-08-24 16:04:00,
2013-08-24 09:09:00,78.0,49.5,29.87,East,90,0.0,3.5,37,0.00,,,0.00,WUHU216HW,2013-08-24 16:09:00,
2013-08-24 09:14:00,78.4,49.8,29.87,ESE,113,0.0,5.5,37,0.00,,,0.00,WUHU216HW,2013-08-24 16:14:00,
2013-08-24 09:19:00,78.6,49.2,29.87,ESE,113,0.0,5.5,36,0.00,,,0.00,WUHU216HW,2013-08-24 16:19:00,
2013-08-24 09:24:00,78.6,49.2,29.87,ENE,68,1.7,3.3,36,0.00,,,0.00,WUHU216HW,2013-08-24 16:24:00,
2013-08-24 09:29:00,79.3,49.1,29.87,SSE,158,0.0,2.2,35,0.00,,,0.00,WUHU216HW,2013-08-24 16:29:00,
2013-08-24 09:34:00,79.8,49.6,29.87,ESE,113,0.0,1.7,35,0.00,,,0.00,WUHU216HW,2013-08-24 16:34:00,
2013-08-24 09:39:00,79.8,49.6,29.87,SW,225,0.0,0.0,36,0.00,,,0.00,WUHU216HW,2013-08-24 16:39:00,
2013-08-24 09:44:00,79.8,49.6,29.87,SSE,158,0.0,1.7,35,0.00,,,0.00,WUHU216HW,2013-08-24 16:44:00,
2013-08-24 09:49:00,80.0,49.7,29.87,SW,225,0.2,1.7,35,0.00,,,0.00,WUHU216HW,2013-08-24 16:49:00,
2013-08-24 09:55:00,80.2,49.1,29.87,WSW,248,0.0,1.7,34,0.00,,,0.00,WUHU216HW,2013-08-24 16:55:00,
2013-08-24 10:00:00,80.2,49.1,29.87,WSW,248,1.7,2.4,34,0.00,,,0.00,WUHU216HW,2013-08-24 17:00:00,
2013-08-24 10:05:00,80.0,49.7,29.87,WSW,248,3.5,3.5,35,0.00,,,0.00,WUHU216HW,2013-08-24 17:05:00,
2013-08-24 10:10:00,79.8,49.6,29.87,SW,225,3.1,3.5,35,0.00,,,0.00,WUHU216HW,2013-08-24 17:10:00,
2013-08-24 10:15:00,79.8,49.6,29.87,WSW,248,1.5,3.5,35,0.00,,,0.00,WUHU216HW,2013-08-24 17:15:00,
2013-08-24 10:20:00,79.8,49.6,29.87,SW,225,5.1,5.1,35,0.00,,,0.00,WUHU216HW,2013-08-24 17:20:00,
2013-08-24 10:25:00,80.2,49.9,29.87,WSW,248,1.5,5.8,35,0.00,,,0.00,WUHU216HW,2013-08-24 17:25:00,
2013-08-24 10:30:00,80.4,50.1,29.87,WSW,248,2.6,5.8,35,0.00,,,0.00,WUHU216HW,2013-08-24 17:30:00,
2013-08-24 10:35:00,80.6,50.2,29.87,SW,225,2.6,5.1,35,0.00,,,0.00,WUHU216HW,2013-08-24 17:35:00,
2013-08-24 10:40:00,80.9,49.8,29.87,SW,225,4.2,5.1,34,0.00,,,0.00,WUHU216HW,2013-08-24 17:40:00,
2013-08-24 10:45:00,80.7,49.6,29.87,WSW,248,4.0,4.2,34,0.00,,,0.00,WUHU216HW,2013-08-24 17:45:00,
2013-08-24 10:50:00,80.9,50.5,29.88,West,270,0.6,4.2,35,0.00,,,0.00,WUHU216HW,2013-08-24 17:50:00,
2013-08-24 10:55:00,80.9,50.5,29.88,WSW,248,3.5,3.5,35,0.00,,,0.00,WUHU216HW,2013-08-24 17:55:00,
2013-08-24 11:00:00,81.3,50.8,29.88,WSW,248,3.1,3.5,35,0.00,,,0.00,WUHU216HW,2013-08-24 18:00:00,
2013-08-24 11:05:00,81.5,51.0,29.88,SW,225,1.1,3.8,35,0.00,,,0.00,WUHU216HW,2013-08-24 18:05:00,
2013-08-24 11:10:00,81.8,50.5,29.88,WSW,248,1.7,3.8,34,0.00,,,0.00,WUHU216HW,2013-08-24 18:10:00,
2013-08-24 11:15:00,82.2,50.8,29.88,WSW,248,2.2,3.8,34,0.00,,,0.00,WUHU216HW,2013-08-24 18:15:00,
2013-08-24 11:20:00,82.5,51.1,29.88,SW,225,1.7,5.3,34,0.00,,,0.00,WUHU216HW,2013-08-24 18:20:00,
2013-08-24 11:25:00,82.7,51.3,29.88,SW,225,3.5,5.8,34,0.00,,,0.00,WUHU216HW,2013-08-24 18:25:00,
2013-08-24 11:31:00,82.9,51.4,29.89,SW,225,1.5,5.8,34,0.00,,,0.00,WUHU216HW,2013-08-24 18:31:00,
2013-08-24 11:36:00,83.1,50.8,29.88,WSW,248,4.9,6.0,33,0.00,,,0.00,WUHU216HW,2013-08-24 18:36:00,
2013-08-24 11:41:00,83.1,50.8,29.89,West,270,3.3,6.2,33,0.00,,,0.00,WUHU216HW,2013-08-24 18:41:00,
2013-08-24 11:46:00,83.1,50.8,29.89,SW,225,3.5,6.2,33,0.00,,,0.00,WUHU216HW,2013-08-24 18:46:00,
2013-08-24 11:51:00,83.3,51.0,29.88,WSW,248,6.9,6.9,33,0.00,,,0.00,WUHU216HW,2013-08-24 18:51:00,
2013-08-24 11:56:00,83.3,51.0,29.88,WSW,248,3.8,6.9,33,0.00,,,0.00,WUHU216HW,2013-08-24 18:56:00,
2013-08-24 12:01:00,83.4,51.1,29.88,West,270,2.0,6.9,33,0.00,,,0.00,WUHU216HW,2013-08-24 19:01:00,
2013-08-24 12:06:00,83.8,51.5,29.88,WSW,248,2.6,7.3,33,0.00,,,0.00,WUHU216HW,2013-08-24 19:06:00,
2013-08-24 12:11:00,83.8,51.5,29.88,West,270,1.7,7.3,33,0.00,,,0.00,WUHU216HW,2013-08-24 19:11:00,
2013-08-24 12:16:00,84.3,51.2,29.88,SW,225,2.0,6.7,32,0.00,,,0.00,WUHU216HW,2013-08-24 19:16:00,
2013-08-24 12:21:00,84.7,51.5,29.88,SW,225,3.3,7.3,32,0.00,,,0.00,WUHU216HW,2013-08-24 19:21:00,
2013-08-24 12:26:00,84.7,51.5,29.88,WSW,248,1.3,7.3,32,0.00,,,0.00,WUHU216HW,2013-08-24 19:26:00,
2013-08-24 12:31:00,85.2,50.4,29.88,WSW,248,2.4,5.3,30,0.00,,,0.00,WUHU216HW,2013-08-24 19:31:00,
2013-08-24 12:36:00,85.4,50.5,29.88,SW,225,5.1,5.3,30,0.00,,,0.00,WUHU216HW,2013-08-24 19:36:00,
2013-08-24 12:41:00,85.6,50.7,29.88,WSW,248,3.3,5.1,29,0.00,,,0.00,WUHU216HW,2013-08-24 19:41:00,
2013-08-24 12:46:00,85.6,49.6,29.87,West,270,2.9,5.1,29,0.00,,,0.00,WUHU216HW,2013-08-24 19:46:00,
2013-08-24 12:51:00,86.1,49.0,29.87,WNW,293,0.0,4.2,28,0.00,,,0.00,WUHU216HW,2013-08-24 19:51:00,
2013-08-24 12:56:00,86.3,49.2,29.87,West,270,2.6,3.1,29,0.00,,,0.00,WUHU216HW,2013-08-24 19:56:00,
2013-08-24 13:01:00,86.7,50.5,29.87,ESE,113,0.0,3.1,29,0.00,,,0.00,WUHU216HW,2013-08-24 20:01:00,
2013-08-24 13:07:00,87.2,49.9,29.87,SSW,203,0.8,2.9,28,0.00,,,0.00,WUHU216HW,2013-08-24 20:07:00,
2013-08-24 13:12:00,87.4,50.1,29.87,West,270,0.0,2.9,28,0.00,,,0.00,WUHU216HW,2013-08-24 20:12:00,
2013-08-24 13:17:00,88.1,49.6,29.87,WSW,248,4.0,4.0,27,0.00,,,0.00,WUHU216HW,2013-08-24 20:17:00,
2013-08-24 13:22:00,88.1,48.5,29.87,WSW,248,4.6,4.9,26,0.00,,,0.00,WUHU216HW,2013-08-24 20:22:00,
2013-08-24 13:27:00,88.3,48.7,29.87,West,270,3.3,4.9,26,0.00,,,0.00,WUHU216HW,2013-08-24 20:27:00,
2013-08-24 13:32:00,89.0,49.3,29.87,West,270,0.2,4.6,26,0.00,,,0.00,WUHU216HW,2013-08-24 20:32:00,
2013-08-24 13:37:00,88.5,48.8,29.87,SW,225,1.3,6.7,26,0.00,,,0.00,WUHU216HW,2013-08-24 20:37:00,
2013-08-24 13:42:00,88.8,49.2,29.87,West,270,3.3,6.7,26,0.00,,,0.00,WUHU216HW,2013-08-24 20:42:00,
2013-08-24 13:47:00,89.0,50.4,29.86,SW,225,2.4,3.8,27,0.00,,,0.00,WUHU216HW,2013-08-24 20:47:00,
2013-08-24 13:52:00,89.4,49.6,29.86,West,270,0.0,3.8,26,0.00,,,0.00,WUHU216HW,2013-08-24 20:52:00,
2013-08-24 13:57:00,89.4,49.6,29.86,WSW,248,0.4,3.8,26,0.00,,,0.00,WUHU216HW,2013-08-24 20:57:00,
2013-08-24 14:02:00,89.7,49.9,29.86,WSW,248,2.4,3.1,26,0.00,,,0.00,WUHU216HW,2013-08-24 21:02:00,
2013-08-24 14:07:00,89.4,49.6,29.87,WSW,248,0.6,3.5,26,0.00,,,0.00,WUHU216HW,2013-08-24 21:07:00,
2013-08-24 14:12:00,89.4,49.6,29.86,SSW,203,0.0,6.4,26,0.00,,,0.00,WUHU216HW,2013-08-24 21:12:00,
2013-08-24 14:17:00,90.1,49.2,29.86,SW,225,2.0,6.4,25,0.00,,,0.00,WUHU216HW,2013-08-24 21:17:00,
2013-08-24 14:22:00,90.5,49.5,29.86,SW,225,3.3,3.3,25,0.00,,,0.00,WUHU216HW,2013-08-24 21:22:00,
2013-08-24 14:27:00,90.5,49.5,29.86,SSW,203,2.0,7.6,25,0.00,,,0.00,WUHU216HW,2013-08-24 21:27:00,
2013-08-24 14:32:00,90.6,49.6,29.85,WSW,248,0.6,7.6,25,0.00,,,0.00,WUHU216HW,2013-08-24 21:32:00,
2013-08-24 14:38:00,91.0,48.8,29.85,SW,225,3.8,4.0,24,0.00,,,0.00,WUHU216HW,2013-08-24 21:38:00,
2013-08-24 14:43:00,91.4,49.1,29.85,WSW,248,2.6,3.8,24,0.00,,,0.00,WUHU216HW,2013-08-24 21:43:00,
2013-08-24 14:48:00,91.2,49.0,29.85,West,270,1.1,3.8,24,0.00,,,0.00,WUHU216HW,2013-08-24 21:48:00,
2013-08-24 14:53:00,91.5,49.3,29.85,SW,225,2.2,2.6,24,0.00,,,0.00,WUHU216HW,2013-08-24 21:53:00,
2013-08-24 14:58:00,91.4,49.1,29.84,West,270,4.4,4.4,24,0.00,,,0.00,WUHU216HW,2013-08-24 21:58:00,
2013-08-24 15:03:00,91.0,48.8,29.84,SSW,203,4.2,4.4,24,0.00,,,0.00,WUHU216HW,2013-08-24 22:03:00,
2013-08-24 15:08:00,91.5,49.3,29.84,WSW,248,5.1,5.1,24,0.00,,,0.00,WUHU216HW,2013-08-24 22:08:00,
2013-08-24 15:13:00,91.2,49.0,29.84,WSW,248,1.5,5.5,24,0.00,,,0.00,WUHU216HW,2013-08-24 22:13:00,
2013-08-24 15:18:00,91.5,49.3,29.83,WSW,248,0.4,6.4,24,0.00,,,0.00,WUHU216HW,2013-08-24 22:18:00,
2013-08-24 15:23:00,92.1,49.7,29.83,SW,225,3.3,6.4,24,0.00,,,0.00,WUHU216HW,2013-08-24 22:23:00,
2013-08-24 15:28:00,92.1,49.7,29.82,WSW,248,3.8,5.5,24,0.00,,,0.00,WUHU216HW,2013-08-24 22:28:00,
2013-08-24 15:33:00,92.1,49.7,29.83,WSW,248,3.8,5.5,24,0.00,,,0.00,WUHU216HW,2013-08-24 22:33:00,
2013-08-24 15:38:00,92.4,50.0,29.82,WSW,248,5.5,5.5,23,0.00,,,0.00,WUHU216HW,2013-08-24 22:38:00,
2013-08-24 15:43:00,91.9,49.6,29.82,WSW,248,0.4,5.5,24,0.00,,,0.00,WUHU216HW,2013-08-24 22:43:00,
2013-08-24 15:48:00,91.7,49.4,29.82,WSW,248,3.8,5.5,24,0.00,,,0.00,WUHU216HW,2013-08-24 22:48:00,
2013-08-24 15:53:00,92.1,49.7,29.83,WSW,248,3.3,3.8,24,0.00,,,0.00,WUHU216HW,2013-08-24 22:53:00,
2013-08-24 15:58:00,92.1,49.7,29.82,WSW,248,3.5,6.7,24,0.00,,,0.00,WUHU216HW,2013-08-24 22:58:00,
2013-08-24 16:03:00,92.1,48.6,29.82,WSW,248,5.3,6.7,23,0.00,,,0.00,WUHU216HW,2013-08-24 23:03:00,
2013-08-24 16:08:00,92.3,49.8,29.82,WSW,248,3.3,6.4,24,0.00,,,0.00,WUHU216HW,2013-08-24 23:08:00,
2013-08-24 16:14:00,92.4,50.0,29.81,WSW,248,6.7,6.7,24,0.00,,,0.00,WUHU216HW,2013-08-24 23:14:00,
2013-08-24 16:19:00,91.9,49.6,29.81,WSW,248,3.1,6.7,24,0.00,,,0.00,WUHU216HW,2013-08-24 23:19:00,
2013-08-24 16:24:00,91.9,49.6,29.82,WSW,248,4.0,6.9,24,0.00,,,0.00,WUHU216HW,2013-08-24 23:24:00,
2013-08-24 16:29:00,91.5,49.3,29.82,WSW,248,3.3,6.9,24,0.00,,,0.00,WUHU216HW,2013-08-24 23:29:00,
2013-08-24 16:34:00,91.2,49.0,29.82,WSW,248,2.6,4.4,24,0.00,,,0.00,WUHU216HW,2013-08-24 23:34:00,
2013-08-24 16:39:00,91.7,49.4,29.82,WSW,248,2.2,4.0,24,0.00,,,0.00,WUHU216HW,2013-08-24 23:39:00,
2013-08-24 16:44:00,91.7,49.4,29.82,WSW,248,3.3,7.3,24,0.00,,,0.00,WUHU216HW,2013-08-24 23:44:00,
2013-08-24 16:49:00,91.2,49.0,29.82,WSW,248,3.5,9.6,24,0.00,,,0.00,WUHU216HW,2013-08-24 23:49:00,
2013-08-24 16:54:00,91.5,49.3,29.81,WSW,248,0.8,9.6,24,0.00,,,0.00,WUHU216HW,2013-08-24 23:54:00,
2013-08-24 16:59:00,91.5,49.3,29.82,WSW,248,5.3,7.1,24,0.00,,,0.00,WUHU216HW,2013-08-24 23:59:00,
2013-08-24 17:04:00,91.2,49.0,29.81,WSW,248,2.9,7.1,24,0.00,,,0.00,WUHU216HW,2013-08-25 00:04:00,
2013-08-24 17:09:00,91.0,48.8,29.82,WSW,248,5.8,7.3,24,0.00,,,0.00,WUHU216HW,2013-08-25 00:09:00,
2013-08-24 17:14:00,90.3,49.3,29.81,WSW,248,6.4,8.5,25,0.00,,,0.00,WUHU216HW,2013-08-25 00:14:00,
2013-08-24 17:19:00,90.1,49.2,29.81,WSW,248,3.1,9.1,25,0.00,,,0.00,WUHU216HW,2013-08-25 00:19:00,
2013-08-24 17:24:00,90.3,49.3,29.81,WSW,248,6.9,9.1,25,0.00,,,0.00,WUHU216HW,2013-08-25 00:24:00,
2013-08-24 17:29:00,90.1,49.2,29.81,WSW,248,3.3,8.0,25,0.00,,,0.00,WUHU216HW,2013-08-25 00:29:00,
2013-08-24 17:34:00,89.7,48.8,29.81,WSW,248,6.0,8.0,25,0.00,,,0.00,WUHU216HW,2013-08-25 00:34:00,
2013-08-24 17:40:00,89.4,49.6,29.82,WSW,248,6.7,7.6,26,0.00,,,0.00,WUHU216HW,2013-08-25 00:40:00,
2013-08-24 17:45:00,89.9,50.1,29.82,WSW,248,3.5,7.6,26,0.00,,,0.00,WUHU216HW,2013-08-25 00:45:00,
2013-08-24 17:50:00,90.1,49.2,29.81,WSW,248,5.8,7.8,25,0.00,,,0.00,WUHU216HW,2013-08-25 00:50:00,
2013-08-24 17:55:00,90.1,49.2,29.82,WSW,248,4.0,7.8,25,0.00,,,0.00,WUHU216HW,2013-08-25 00:55:00,
2013-08-24 18:00:00,89.9,49.0,29.82,WSW,248,3.3,5.8,25,0.00,,,0.00,WUHU216HW,2013-08-25 01:00:00,
2013-08-24 18:05:00,89.7,48.8,29.82,WSW,248,2.4,5.1,25,0.00,,,0.00,WUHU216HW,2013-08-25 01:05:00,
2013-08-24 18:10:00,89.9,49.0,29.82,WSW,248,2.0,4.0,25,0.00,,,0.00,WUHU216HW,2013-08-25 01:10:00,
2013-08-24 18:15:00,89.7,48.8,29.81,SW,225,4.4,5.1,25,0.00,,,0.00,WUHU216HW,2013-08-25 01:15:00,
2013-08-24 18:20:00,89.2,48.4,29.81,WSW,248,2.0,5.1,25,0.00,,,0.00,WUHU216HW,2013-08-25 01:20:00,
2013-08-24 18:25:00,89.0,48.2,29.81,WSW,248,2.6,4.4,25,0.00,,,0.00,WUHU216HW,2013-08-25 01:25:00,
2013-08-24 18:30:00,88.8,48.1,29.81,WSW,248,4.2,4.2,25,0.00,,,0.00,WUHU216HW,2013-08-25 01:30:00,
2013-08-24 18:35:00,88.8,48.1,29.81,WSW,248,3.8,4.2,25,0.00,,,0.00,WUHU216HW,2013-08-25 01:35:00,
2013-08-24 18:40:00,88.5,47.8,29.81,SW,225,3.5,4.2,25,0.00,,,0.00,WUHU216HW,2013-08-25 01:40:00,
2013-08-24 18:45:00,87.9,47.3,29.81,SW,225,4.0,4.2,25,0.00,,,0.00,WUHU216HW,2013-08-25 01:45:00,
2013-08-24 18:50:00,87.6,47.0,29.81,WSW,248,1.7,4.2,25,0.00,,,0.00,WUHU216HW,2013-08-25 01:50:00,
2013-08-24 18:55:00,87.6,47.0,29.81,WSW,248,3.5,6.7,25,0.00,,,0.00,WUHU216HW,2013-08-25 01:55:00,
2013-08-24 19:00:00,87.4,46.9,29.82,SW,225,3.3,6.7,25,0.00,,,0.00,WUHU216HW,2013-08-25 02:00:00,
2013-08-24 19:06:00,86.7,46.2,29.81,WSW,248,2.2,4.6,25,0.00,,,0.00,WUHU216HW,2013-08-25 02:06:00,
2013-08-24 19:11:00,86.5,46.1,29.81,WSW,248,1.3,3.3,26,0.00,,,0.00,WUHU216HW,2013-08-25 02:11:00,
2013-08-24 19:16:00,86.1,46.9,29.82,WSW,248,4.4,5.3,26,0.00,,,0.00,WUHU216HW,2013-08-25 02:16:00,
2013-08-24 19:21:00,85.6,46.4,29.82,WSW,248,2.4,5.3,26,0.00,,,0.00,WUHU216HW,2013-08-25 02:21:00,
2013-08-24 19:26:00,85.2,47.2,29.83,WSW,248,2.9,3.1,27,0.00,,,0.00,WUHU216HW,2013-08-25 02:26:00,
2013-08-24 19:31:00,84.9,46.9,29.83,WSW,248,2.6,2.9,27,0.00,,,0.00,WUHU216HW,2013-08-25 02:31:00,
2013-08-24 19:36:00,84.3,48.5,29.83,NW,315,3.3,5.3,29,0.00,,,0.00,WUHU216HW,2013-08-25 02:36:00,
2013-08-24 19:41:00,83.8,48.0,29.83,SW,225,2.4,5.3,29,0.00,,,0.00,WUHU216HW,2013-08-25 02:41:00,
2013-08-24 19:46:00,83.4,48.8,29.83,SW,225,0.0,3.3,30,0.00,,,0.00,WUHU216HW,2013-08-25 02:46:00,
2013-08-24 19:51:00,83.1,48.4,29.83,SW,225,0.0,2.4,30,0.00,,,0.00,WUHU216HW,2013-08-25 02:51:00,
2013-08-24 19:56:00,82.5,48.7,29.83,SW,225,0.0,1.7,31,0.00,,,0.00,WUHU216HW,2013-08-25 02:56:00,
2013-08-24 20:01:00,82.2,48.4,29.83,WSW,248,2.4,2.4,31,0.00,,,0.00,WUHU216HW,2013-08-25 03:01:00,
2013-08-24 20:06:00,82.0,48.3,29.83,WSW,248,0.8,2.4,31,0.00,,,0.00,WUHU216HW,2013-08-25 03:06:00,
2013-08-24 20:11:00,81.5,49.4,29.83,West,270,1.5,2.4,33,0.00,,,0.00,WUHU216HW,2013-08-25 03:11:00,
2013-08-24 20:16:00,81.3,48.5,29.84,SW,225,0.0,2.6,32,0.00,,,0.00,WUHU216HW,2013-08-25 03:16:00,
2013-08-24 20:21:00,80.9,48.2,29.83,WSW,248,2.2,2.6,32,0.00,,,0.00,WUHU216HW,2013-08-25 03:21:00,
2013-08-24 20:26:00,80.7,49.6,29.84,WSW,248,0.0,2.6,34,0.00,,,0.00,WUHU216HW,2013-08-25 03:26:00,
2013-08-24 20:31:00,80.4,49.3,29.84,WSW,248,0.0,2.6,34,0.00,,,0.00,WUHU216HW,2013-08-25 03:31:00,
2013-08-24 20:36:00,80.2,49.9,29.84,WNW,293,3.1,3.1,35,0.00,,,0.00,WUHU216HW,2013-08-25 03:36:00,
2013-08-24 20:42:00,79.8,49.6,29.84,WSW,248,1.5,3.1,35,0.00,,,0.00,WUHU216HW,2013-08-25 03:42:00,
2013-08-24 20:47:00,79.5,50.0,29.85,SW,225,1.1,3.1,36,0.00,,,0.00,WUHU216HW,2013-08-25 03:47:00,
2013-08-24 20:52:00,79.3,49.9,29.84,West,270,1.5,2.6,36,0.00,,,0.00,WUHU216HW,2013-08-25 03:52:00,
2013-08-24 20:57:00,79.1,49.7,29.85,WNW,293,4.4,5.3,36,0.00,,,0.00,WUHU216HW,2013-08-25 03:57:00,
2013-08-24 21:01:00,78.9,49.5,29.84,NW,315,1.7,5.3,36,0.00,,,0.00,WUHU216HW,2013-08-25 04:01:00,
2013-08-24 21:02:00,78.9,49.5,29.85,NW,315,1.7,5.3,36,0.00,,,0.00,WUHU216HW,2013-08-25 04:02:00,
2013-08-24 21:07:00,78.9,49.5,29.85,North,0,3.8,4.4,36,0.00,,,0.00,WUHU216HW,2013-08-25 04:07:00,
2013-08-24 21:12:00,78.9,49.5,29.85,NE,45,2.9,7.3,36,0.00,,,0.00,WUHU216HW,2013-08-25 04:12:00,
2013-08-24 21:17:00,78.8,49.4,29.85,North,0,4.0,7.6,36,0.00,,,0.00,WUHU216HW,2013-08-25 04:17:00,
2013-08-24 21:22:00,78.8,49.4,29.86,North,0,3.1,7.6,36,0.00,,,0.00,WUHU216HW,2013-08-25 04:22:00,
2013-08-24 21:27:00,78.6,49.2,29.86,North,0,0.6,3.1,36,0.00,,,0.00,WUHU216HW,2013-08-25 04:27:00,
2013-08-24 21:33:00,78.6,49.2,29.86,NNW,338,4.6,4.6,36,0.00,,,0.00,WUHU216HW,2013-08-25 04:33:00,
2013-08-24 21:38:00,78.4,49.1,29.86,NNW,338,2.9,4.6,36,0.00,,,0.00,WUHU216HW,2013-08-25 04:38:00,
2013-08-24 21:43:00,78.4,49.1,29.86,NNW,338,0.0,4.6,36,0.00,,,0.00,WUHU216HW,2013-08-25 04:43:00,
2013-08-24 21:48:00,78.0,48.8,29.86,SW,225,1.7,2.9,36,0.00,,,0.00,WUHU216HW,2013-08-25 04:48:00,
2013-08-24 21:53:00,77.7,49.2,29.86,WSW,248,1.1,1.7,37,0.00,,,0.00,WUHU216HW,2013-08-25 04:53:00,
2013-08-24 21:58:00,77.5,49.1,29.86,West,270,0.8,1.7,37,0.00,,,0.00,WUHU216HW,2013-08-25 04:58:00,
2013-08-24 22:03:00,77.5,49.1,29.86,West,270,0.8,1.7,37,0.00,,,0.00,WUHU216HW,2013-08-25 05:03:00,
2013-08-24 22:08:00,77.5,49.1,29.86,West,270,0.0,1.7,37,0.00,,,0.00,WUHU216HW,2013-08-25 05:08:00,